Regional Weather Roundup
Issued by NWS

Home | Current Version | Previous Version | Text Only | Print | Product List | Glossary On
Versions: 1 2 3 4 5 6 7 8 9 10 11 12 13 14 15 16 17 18 19 20 21 22 23 24 25 26 27 28 29 30 31 32 33 34 35 36 37 38 39 40 41 42 43 44 45 46 47 48 49 50
000
ASUS44 KMEG 290510
RWRTN
TENNESSEE HOURLY STATE WEATHER ROUNDUP
NATIONAL WEATHER SERVICE MEMPHIS TN
1200 AM CDT FRI AUG 29 2014

TNZ002-004-019-021-049-052-054-088>092-290600-
WEST TENNESSEE

CITY           SKY/WX    TMP DP  RH WIND       PRES   REMARKS
MEMPHIS INTL   PTCLDY    84  69  60 E7        29.97S
NWS MEMPHIS      N/A     78 N/A N/A MISG        N/A
JACKSON        CLEAR     75  72  90 CALM      29.98S
DYERSBURG      CLEAR     73  63  68 CALM      29.99R
UNION CITY     CLEAR     72  72 100 CALM      29.98S
PARIS          CLEAR     70  70 100 NE5       30.01R
HUNTINGDON     CLEAR     71  70  97 CALM      30.00R
LEXINGTON      CLEAR     72  72 100 CALM      29.99R
SAVANNAH       CLEAR     70  70 100 CALM      29.99S
$$

TNZ008-025-027-028-033-062-065-066-290600-
NORTH MIDDLE TENNESSEE

CITY           SKY/WX    TMP DP  RH WIND       PRES   REMARKS
NASHVILLE      PTCLDY    76  72  87 CALM      30.01F
DICKSON        CLEAR     72  70  94 CALM      30.01F
PORTLAND       MOCLDY    72  70  94 CALM      30.02S
CLARKSVILLE    MOCLDY    74  70  87 E5        30.01S
LEBANON        CLEAR     74  70  87 CALM      30.00F
SMYRNA         CLEAR     78  74  87 CALM      30.01F
MURFREESBORO   CLEAR     77  71  81 CALM      30.01S
COOKEVILLE     CLEAR     70  70 100 CALM      30.04S
LIVINGSTON     CLEAR     72  68  87 CALM      30.06F
GALLATIN       CLEAR     76  74  93 N3        30.03R
CROSSVILLE     CLEAR     72  68  87 CALM      30.10S FOG
$$

TNZ061-075-076-078-094-096-097-290600-
SOUTH MIDDLE TENNESSEE

CITY           SKY/WX    TMP DP  RH WIND       PRES   REMARKS
LEWISBURG      CLEAR     70  69  96 CALM      30.01S
FAYETTEVILLE   CLEAR     72  64  78 SE5       30.03S
TULLAHOMA      CLEAR     70  66  88 CALM      30.05S
WINCHESTER     CLEAR     70  66  88 CALM      30.04S
MCMINNVILLE    CLOUDY    72  72 100 CALM      30.04S VSB 1/4
COLUMBIA         N/A     73  73 100 S3        30.00S
SHELBYVILLE    CLEAR     75  73  94 E6        30.02F
$$

TNZ017-018-042-046-047-290600-
NORTHEAST TENNESSEE

CITY           SKY/WX    TMP DP  RH WIND       PRES   REMARKS
TRI CITIES     CLEAR     69  66  90 CALM      30.09S
ELIZABETHTON   CLEAR     64  63  94 CALM      30.11S
$$

TNZ012-013-036-069-073-074-290600-
CENTRAL EAST TENNESSEE

CITY           SKY/WX    TMP DP  RH WIND       PRES   REMARKS
KNOXVILLE      CLEAR     74  70  87 CALM      30.03F
OAK RIDGE      CLEAR     75  71  87 CALM      30.06S
GATLINBURG     CLEAR     72  68  88 CALM      30.05S
MORRISTOWN     CLEAR     73  70  88 CALM      30.08S
$$

TNZ083-085-099-290600-
SOUTHEAST TENNESSEE

CITY           SKY/WX    TMP DP  RH WIND       PRES   REMARKS
CHATTANOOGA    CLEAR     75  67  76 CALM      30.04R
$$

SKY/WX REPORTED AS FAIR MEANS FEW OR NO CLOUDS BELOW
12 THOUSAND FEET.




USA.gov is the U.S. government's official web portal to all federal, state and local government web resources and services.